Location: 相模原市立博物館
(35.5593°N, 139.3931°E)
Time: 12:02:48
(UTC+09:00)

Envisat - Pass Details

Date: 24 October 2021
Orbit: 764 x 766 km, 98.2° (Epoch: 30 November)

Event Time Altitude Azimuth Distance (km) Brightness Sun altitude
Rises 04:58:53 0° 9° (N) 3,237 6.3 -12.4°
Reaches altitude 10° 05:01:13 10° 7° (N) 2,306 5.5 -11.9°
Maximum altitude 05:06:15 68° 285° (WNW) 825 2.9 -10.9°
Drops below altitude 10° 05:11:15 10° 203° (SSW) 2,291 5.3 -9.9°
Sets 05:13:33 0° 201° (SSW) 3,213 6.1 -9.4°
